If you wish to contribute or participate in the discussions about articles you are invited to join SKYbrary as a registered user

 Actions

Barrow Island Airport

From SKYbrary Wiki

YBWX
Airport
ICAO: YBWX – IATA: BWB
Summary
Name Barrow Island Airport
Region Asia and Pacific
Territory Australia AU.gif
Location Barrow Island, Western Australia
Serving Barrow Island
Elevation 7.925 m
26 ft
26 ft7.925 m
Type small airport
Coordinates 20° 47' 52.80" S, 115° 24' 21.60" E
Runways
Designator Length Width Surface ROPS
3/21 1900 m6,233.596 ft
30 m98.425 ft
ASP /


METAR
Observation YBWX 140400Z AUTO 25015KT //// // ////// 24/17 Q1014
Station Barrow Island Airport
Date/Time 14 October 2019 04:00:00
Wind direction 250°
Wind speed 15 kts
Lowest cloud amount n/a
Temperature 24°C
Dew point 17°C
Humidity 64%
QNH 1014 hPa
Weather condition n/a